Location: Cazarilh
(42.9578°N, 0.5819°E)
Time: 17:20:45
(UTC+00:00)

Cosmos 2195 Rocket - Pass Details

Date: 11 December 2019
Orbit: 949 x 993 km, 82.9° (Epoch: 25 January)

Event Time Altitude Azimuth Distance (km) Brightness Sun altitude
Rises 05:23:23 0° 349° (N) 3,720 7.3 -20.2°
Reaches altitude 10° 05:25:56 10° 347° (NNW) 2,767 6.6 -19.8°
Maximum altitude 05:32:13 65° 267° (W) 1,085 4.5 -18.7°
Drops below altitude 10° 05:38:25 10° 187° (S) 2,738 6.9 -17.6°
Sets 05:40:56 0° 184° (S) 3,677 7.7 -17.1°
